Weather History for Rantoul, IL

Change the Weather History Date:

Thursday, April 25, 2013

  Actual Average (KCMI) Record (KCMI)
Temperature  
Mean Temperature 46 °F 55 °F  
Max Temperature 55 °F 67 °F 84 °F (2008)
Min Temperature 38 °F 43 °F 32 °F (1997)
Degree Days  
Heating Degree Days 18 10  
Month to date heating degree days 363  
Since 1 July heating degree days 5621  
Cooling Degree Days 0 0  
Month to date cooling degree days 0  
Year to date cooling degree days 1  
Moisture  
Dew Point 32 °F    
Average Humidity 61    
Maximum Humidity 81    
Minimum Humidity 36    
Precipitation  
Precipitation 0.00 in 0.13 in 1.89 in (2011)
Month to date precipitation 3.03  
Year to date precipitation 9.85  
Sea Level Pressure  
Sea Level Pressure 30.27 in    
Wind  
Wind Speed 11 mph (WSW)    
Max Wind Speed 25 mph    
Max Gust Speed 31 mph    
Visibility 10 miles    
Events Rain    
T = Trace of Precipitation, MM = Missing Value Source: NWS Daily Summary

Daily Weather History Graph

Daily Weather History Graph

Search for Another Location

Airport:

Trip Planner

Search our weather history database for the weather conditions in past years. The results will help you decide how hot, cold, wet, or windy it might be!

Date:

Astronomy

Apr. 25, 2013 Rise Set
Actual Time 5:59 AM CDT 7:42 PM CDT
Civil Twilight 5:30 AM CDT 8:11 PM CDT
Nautical Twilight 4:55 AM CDT 8:46 PM CDT
Astronomical Twilight 4:18 AM CDT 9:23 PM CDT
Moon 7:54 PM CDT (4/25) 5:42 AM CDT (4/25)
Length of Visible Light 14h 40m
Length of Day
13h 42m
Full, 100% of the Moon is Illuminated
Apr 25
Full
Apr 25
Full
May 2
Last Quarter
May 9
New
May 17
First Quarter

Hourly Weather History & Observations

Time (CDT) Temp. Windchill Dew Point Humidity Pressure Visibility Wind Dir Wind Speed Gust Speed Precip Events Conditions
12:15 AM 40.1 °F 35.3 °F 34.2 °F 79% 30.20 in 10.0 mi SW 6.9 mph - N/A   Clear
12:35 AM 40.1 °F 36.1 °F 34.2 °F 79% 30.20 in 10.0 mi SW 5.8 mph - N/A   Clear
12:55 AM 40.1 °F 34.7 °F 33.8 °F 78% 30.19 in 10.0 mi SW 8.1 mph - N/A   Clear
1:15 AM 39.9 °F 32.9 °F 34.0 °F 79% 30.20 in 10.0 mi SW 11.5 mph - N/A   Clear
1:35 AM 39.7 °F 33.2 °F 34.2 °F 80% 30.19 in 10.0 mi SW 10.4 mph - N/A   Clear
1:55 AM 39.4 °F 33.2 °F 33.8 °F 80% 30.19 in 10.0 mi SW 9.2 mph - N/A   Clear
2:15 AM 39.2 °F 34.2 °F 33.4 °F 80% 30.17 in 10.0 mi SW 6.9 mph - N/A   Clear
2:35 AM 38.7 °F 32.9 °F 33.3 °F 81% 30.17 in 10.0 mi SW 8.1 mph - N/A   Clear
2:55 AM 38.8 °F 31.6 °F 33.3 °F 80% 30.18 in 10.0 mi SW 11.5 mph - N/A   Clear
3:15 AM 38.8 °F 32.6 °F 33.1 °F 80% 30.17 in 10.0 mi SW 9.2 mph - N/A   Clear
3:35 AM 38.7 °F 32.4 °F 32.7 °F 79% 30.18 in 10.0 mi SW 9.2 mph - N/A   Clear
3:55 AM 38.5 °F 32.1 °F 32.5 °F 79% 30.18 in 10.0 mi SW 9.2 mph - N/A   Clear
4:15 AM 39.2 °F 33.0 °F 32.4 °F 76% 30.18 in 10.0 mi SW 9.2 mph - N/A   Clear
4:35 AM 39.4 °F 32.3 °F 32.7 °F 77% 30.17 in 10.0 mi SSW 11.5 mph - N/A Rain Light Rain
4:55 AM 39.7 °F 34.3 °F 32.2 °F 74% 30.16 in 10.0 mi SW 8.1 mph - N/A   Scattered Clouds
5:15 AM 39.9 °F 33.4 °F 32.4 °F 74% 30.17 in 10.0 mi SW 10.4 mph - N/A   Scattered Clouds
5:35 AM 39.9 °F 31.8 °F 32.5 °F 75% 30.17 in 10.0 mi SW 15.0 mph - N/A   Scattered Clouds
5:55 AM 38.8 °F 30.8 °F 32.4 °F 78% 30.17 in 10.0 mi SW 13.8 mph - N/A   Scattered Clouds
6:15 AM 39.2 °F 31.6 °F 32.4 °F 76% 30.17 in 10.0 mi SW 12.7 mph - N/A   Clear
6:35 AM 39.6 °F 32.1 °F 32.9 °F 77% 30.18 in 10.0 mi SW 12.7 mph - N/A   Scattered Clouds
6:55 AM 39.7 °F 32.7 °F 33.1 °F 77% 30.19 in 10.0 mi SW 11.5 mph - N/A   Scattered Clouds
7:15 AM 40.8 °F 34.5 °F 34.0 °F 77% 30.19 in 10.0 mi SW 10.4 mph - N/A   Clear
7:35 AM 42.8 °F 37.0 °F 34.7 °F 73% 30.20 in 10.0 mi WSW 10.4 mph - N/A   Clear
7:55 AM 44.2 °F 37.6 °F 35.6 °F 72% 30.21 in 10.0 mi West 13.8 mph 21.9 mph N/A   Clear
8:15 AM 45.0 °F 37.1 °F 36.1 °F 71% 30.21 in 10.0 mi West 19.6 mph 24.2 mph N/A   Clear
8:35 AM 45.7 °F 39.1 °F 36.7 °F 71% 30.22 in 10.0 mi West 15.0 mph - N/A   Clear
8:55 AM 46.6 °F - 34.2 °F 62% 30.24 in 10.0 mi WNW 19.6 mph 25.3 mph N/A   Clear
9:15 AM 47.5 °F - 32.0 °F 55% 30.24 in 10.0 mi WNW 18.4 mph 25.3 mph N/A   Clear
9:35 AM 48.0 °F - 28.8 °F 47% 30.25 in 10.0 mi WNW 23.0 mph 29.9 mph N/A   Clear
9:55 AM 48.2 °F - 29.7 °F 49% 30.26 in 10.0 mi West 21.9 mph 31.1 mph N/A   Clear
10:15 AM 48.2 °F - 30.6 °F 51% 30.28 in 10.0 mi WNW 25.3 mph 31.1 mph N/A   Scattered Clouds
10:35 AM 48.2 °F - 30.0 °F 49% 30.29 in 10.0 mi West 21.9 mph 29.9 mph N/A   Clear
10:55 AM 48.6 °F - 31.1 °F 51% 30.30 in 10.0 mi WNW 18.4 mph 23.0 mph N/A   Scattered Clouds
11:15 AM 48.7 °F - 29.3 °F 47% 30.31 in 10.0 mi WNW 18.4 mph 29.9 mph N/A   Clear
11:35 AM 50.0 °F - 28.4 °F 43% 30.31 in 10.0 mi West 19.6 mph 31.1 mph N/A   Clear
11:55 AM 50.2 °F - 30.9 °F 48% 30.30 in 10.0 mi WNW 23.0 mph 28.8 mph N/A   Clear
12:15 PM 50.4 °F - 29.7 °F 45% 30.31 in 10.0 mi West 19.6 mph 24.2 mph N/A   Clear
12:35 PM 50.9 °F - 29.1 °F 43% 30.31 in 10.0 mi West 20.7 mph 27.6 mph N/A   Clear
12:55 PM 51.6 °F - 29.7 °F 43% 30.31 in 10.0 mi West 21.9 mph 29.9 mph N/A   Clear
1:15 PM 52.2 °F - 28.8 °F 41% 30.31 in 10.0 mi WNW 20.7 mph 29.9 mph N/A   Clear
1:35 PM 52.3 °F - 28.6 °F 40% 30.31 in 10.0 mi WNW 15.0 mph 25.3 mph N/A   Scattered Clouds
1:55 PM 52.9 °F - 31.3 °F 44% 30.31 in 10.0 mi West 18.4 mph 26.5 mph N/A   Scattered Clouds
2:15 PM 53.6 °F - 30.7 °F 42% 30.31 in 10.0 mi WNW 16.1 mph 24.2 mph N/A   Scattered Clouds
2:35 PM 53.1 °F - 28.4 °F 39% 30.31 in 10.0 mi West 19.6 mph 24.2 mph N/A   Scattered Clouds
2:55 PM 54.0 °F - 29.3 °F 39% 30.31 in 10.0 mi WNW 19.6 mph - N/A   Clear
3:15 PM 53.6 °F - 27.3 °F 36% 30.31 in 10.0 mi WNW 13.8 mph 24.2 mph N/A   Scattered Clouds
3:35 PM 54.5 °F - 30.0 °F 39% 30.31 in 10.0 mi West 15.0 mph 21.9 mph N/A   Clear
3:55 PM 54.5 °F - 29.7 °F 39% 30.30 in 10.0 mi WNW 15.0 mph - N/A   Clear
4:15 PM 54.9 °F - 29.5 °F 38% 30.31 in 10.0 mi WNW 17.3 mph 24.2 mph N/A   Scattered Clouds
4:35 PM 54.9 °F - 29.3 °F 38% 30.31 in 10.0 mi WNW 17.3 mph - N/A   Scattered Clouds
4:55 PM 55.0 °F - 30.4 °F 39% 30.31 in 10.0 mi West 11.5 mph 21.9 mph N/A   Clear
5:15 PM 55.0 °F - 28.6 °F 36% 30.31 in 10.0 mi NW 12.7 mph 18.4 mph N/A   Clear
5:35 PM 55.0 °F - 31.5 °F 41% 30.31 in 10.0 mi WNW 13.8 mph - N/A   Clear
5:55 PM 54.7 °F - 30.2 °F 39% 30.31 in 10.0 mi West 12.7 mph - N/A   Clear
6:15 PM 54.5 °F - 30.0 °F 39% 30.31 in 10.0 mi West 10.4 mph 17.3 mph N/A   Clear
6:35 PM 54.3 °F - 30.7 °F 41% 30.31 in 10.0 mi West 10.4 mph 17.3 mph N/A   Clear
6:55 PM 53.6 °F - 31.1 °F 42% 30.31 in 10.0 mi West 8.1 mph - N/A   Clear
7:15 PM 52.7 °F - 32.2 °F 46% 30.31 in 10.0 mi West 6.9 mph - N/A   Clear
7:35 PM 50.5 °F - 34.2 °F 53% 30.32 in 10.0 mi West 5.8 mph - N/A   Clear
7:55 PM 49.6 °F - 33.8 °F 54% 30.32 in 10.0 mi West 3.5 mph - N/A   Clear
8:15 PM 49.8 °F - 33.8 °F 54% 30.32 in 10.0 mi Calm Calm - N/A   Clear
8:35 PM 48.2 °F - 37.4 °F 66% 30.33 in 10.0 mi Calm Calm - N/A   Clear
8:55 PM 46.8 °F - 37.2 °F 69% 30.34 in 10.0 mi Calm Calm - N/A   Clear
9:15 PM 45.5 °F - 37.2 °F 73% 30.34 in 10.0 mi Calm Calm - N/A   Clear
9:35 PM 44.4 °F - 36.1 °F 73% 30.35 in 10.0 mi Calm Calm - N/A   Clear
9:55 PM 44.1 °F 41.5 °F 36.9 °F 76% 30.35 in 10.0 mi ESE 4.6 mph - N/A   Clear
10:15 PM 44.2 °F 42.7 °F 36.7 °F 75% 30.35 in 10.0 mi ESE 3.5 mph - N/A   Clear
10:35 PM 43.9 °F 42.3 °F 35.8 °F 73% 30.34 in 10.0 mi SE 3.5 mph - N/A   Clear
10:55 PM 43.7 °F - 35.8 °F 74% 30.34 in 10.0 mi Calm Calm - N/A   Clear
11:15 PM 42.8 °F 41.1 °F 35.2 °F 75% 30.34 in 10.0 mi ESE 3.5 mph - N/A   Clear
11:35 PM 41.5 °F 38.6 °F 36.0 °F 81% 30.34 in 10.0 mi ESE 4.6 mph - N/A   Clear
11:55 PM 41.4 °F 39.4 °F 35.6 °F 80% 30.34 in 10.0 mi SE 3.5 mph - N/A   Clear